Time,TemperatureF,DewpointF,PressureIn,WindDirection,WindDirectionDegrees,WindSpeedMPH,WindSpeedGustMPH,Humidity,HourlyPrecipIn,Conditions,Clouds,dailyrainin,SolarRadiationWatts/m^2,SoftwareType,DateUTC
2013-04-23 00:01:00,56.1,18.8,29.92,SSW,201,1.0,7.0,23,0.00,,,0.00,0,LWC V2.00 B727,2013-04-23 06:01:00,
2013-04-23 00:06:00,56.0,18.7,29.93,SSW,192,4.0,6.0,23,0.00,,,0.00,0,LWC V2.00 B727,2013-04-23 06:06:00,
2013-04-23 00:11:00,55.9,18.7,29.93,SSW,202,6.0,7.0,23,0.00,,,0.00,0,LWC V2.00 B727,2013-04-23 06:11:00,
2013-04-23 00:16:00,55.7,19.5,29.92,South,188,1.0,4.0,24,0.00,,,0.00,0,LWC V2.00 B727,2013-04-23 06:16:00,
2013-04-23 00:21:00,55.5,18.3,29.92,WSW,240,2.0,7.0,23,0.00,,,0.00,0,LWC V2.00 B727,2013-04-23 06:21:00,
2013-04-23 00:26:00,55.3,18.1,29.92,SSW,192,3.0,6.0,23,0.00,,,0.00,0,LWC V2.00 B727,2013-04-23 06:26:00,
2013-04-23 00:31:00,55.4,18.2,29.92,SW,214,4.0,8.0,23,0.00,,,0.00,0,LWC V2.00 B727,2013-04-23 06:31:00,
2013-04-23 00:36:00,55.7,18.5,29.92,SSW,203,4.0,14.0,23,0.00,,,0.00,0,LWC V2.00 B727,2013-04-23 06:36:00,
2013-04-23 00:41:00,55.9,18.7,29.91,South,186,6.0,10.0,23,0.00,,,0.00,0,LWC V2.00 B727,2013-04-23 06:41:00,
2013-04-23 00:46:00,55.9,18.7,29.92,South,186,4.0,9.0,23,0.00,,,0.00,0,LWC V2.00 B727,2013-04-23 06:46:00,
2013-04-23 00:51:00,55.9,18.7,29.91,SW,221,6.0,10.0,23,0.00,,,0.00,0,LWC V2.00 B727,2013-04-23 06:51:00,
2013-04-23 00:56:00,55.9,18.7,29.92,WSW,238,10.0,11.0,23,0.00,,,0.00,0,LWC V2.00 B727,2013-04-23 06:56:00,
2013-04-23 01:01:00,55.9,18.7,29.91,SW,225,1.0,8.0,23,0.00,,,0.00,0,LWC V2.00 B727,2013-04-23 07:01:00,
2013-04-23 01:06:00,55.9,18.7,29.91,WSW,245,6.0,8.0,23,0.00,,,0.00,0,LWC V2.00 B727,2013-04-23 07:06:00,
2013-04-23 01:11:00,55.9,18.7,29.91,SSW,196,3.0,5.0,23,0.00,,,0.00,0,LWC V2.00 B727,2013-04-23 07:11:00,
2013-04-23 01:16:00,55.8,19.6,29.91,SW,232,2.0,7.0,24,0.00,,,0.00,0,LWC V2.00 B727,2013-04-23 07:16:00,
2013-04-23 01:21:00,55.8,18.6,29.90,SSW,202,4.0,9.0,23,0.00,,,0.00,0,LWC V2.00 B727,2013-04-23 07:21:00,
2013-04-23 01:26:00,55.7,19.5,29.90,SW,217,4.0,8.0,24,0.00,,,0.00,0,LWC V2.00 B727,2013-04-23 07:26:00,
2013-04-23 01:31:00,55.6,19.4,29.90,SW,226,9.0,13.0,24,0.00,,,0.00,0,LWC V2.00 B727,2013-04-23 07:31:00,
2013-04-23 01:36:00,55.7,19.5,29.90,SW,218,3.0,8.0,24,0.00,,,0.00,0,LWC V2.00 B727,2013-04-23 07:36:00,
2013-04-23 01:41:00,55.6,19.4,29.90,SW,225,7.0,12.0,24,0.00,,,0.00,0,LWC V2.00 B727,2013-04-23 07:41:00,
2013-04-23 01:46:00,55.4,19.2,29.90,SW,224,6.0,8.0,24,0.00,,,0.00,0,LWC V2.00 B727,2013-04-23 07:46:00,
2013-04-23 01:51:00,55.3,20.1,29.90,South,191,6.0,7.0,25,0.00,,,0.00,0,LWC V2.00 B727,2013-04-23 07:51:00,
2013-04-23 01:56:00,55.2,20.0,29.90,South,190,4.0,9.0,25,0.00,,,0.00,0,LWC V2.00 B727,2013-04-23 07:56:00,
2013-04-23 02:01:00,55.0,20.8,29.90,SW,215,4.0,8.0,26,0.00,,,0.00,0,LWC V2.00 B727,2013-04-23 08:01:00,
2013-04-23 02:06:00,55.0,20.8,29.90,SSW,198,7.0,14.0,26,0.00,,,0.00,0,LWC V2.00 B727,2013-04-23 08:06:00,
2013-04-23 02:11:00,54.9,20.7,29.90,SSW,196,11.0,12.0,26,0.00,,,0.00,0,LWC V2.00 B727,2013-04-23 08:11:00,
2013-04-23 02:16:00,54.9,20.7,29.90,SW,234,9.0,15.0,26,0.00,,,0.00,0,LWC V2.00 B727,2013-04-23 08:16:00,
2013-04-23 02:21:00,54.8,21.5,29.89,SW,218,7.0,10.0,27,0.00,,,0.00,0,LWC V2.00 B727,2013-04-23 08:21:00,
2013-04-23 02:26:00,54.6,21.3,29.89,SSW,209,6.0,10.0,27,0.00,,,0.00,0,LWC V2.00 B727,2013-04-23 08:26:00,
2013-04-23 02:31:00,54.3,21.0,29.89,SSW,205,7.0,11.0,27,0.00,,,0.00,0,LWC V2.00 B727,2013-04-23 08:31:00,
2013-04-23 02:36:00,53.9,21.6,29.89,SSW,204,2.0,6.0,28,0.00,,,0.00,0,LWC V2.00 B727,2013-04-23 08:36:00,
2013-04-23 02:41:00,53.4,21.1,29.88,SW,228,3.0,8.0,28,0.00,,,0.00,0,LWC V2.00 B727,2013-04-23 08:41:00,
2013-04-23 02:46:00,52.9,21.5,29.88,SSW,206,7.0,9.0,29,0.00,,,0.00,0,LWC V2.00 B727,2013-04-23 08:46:00,
2013-04-23 02:51:00,52.6,21.3,29.88,SW,225,4.0,9.0,29,0.00,,,0.00,0,LWC V2.00 B727,2013-04-23 08:51:00,
2013-04-23 02:56:00,52.3,21.0,29.88,SW,231,2.0,5.0,29,0.00,,,0.00,0,LWC V2.00 B727,2013-04-23 08:56:00,
2013-04-23 03:01:00,51.9,21.5,29.88,WSW,248,4.0,7.0,30,0.00,,,0.00,0,LWC V2.00 B727,2013-04-23 09:01:00,
2013-04-23 03:06:00,51.7,21.3,29.88,SSW,209,3.0,7.0,30,0.00,,,0.00,0,LWC V2.00 B727,2013-04-23 09:06:00,
2013-04-23 03:11:00,51.5,21.9,29.88,WSW,250,3.0,6.0,31,0.00,,,0.00,0,LWC V2.00 B727,2013-04-23 09:11:00,
2013-04-23 03:16:00,51.4,21.8,29.88,SW,234,3.0,9.0,31,0.00,,,0.00,0,LWC V2.00 B727,2013-04-23 09:16:00,
2013-04-23 03:21:00,51.2,21.6,29.88,SW,218,1.0,5.0,31,0.00,,,0.00,0,LWC V2.00 B727,2013-04-23 09:21:00,
2013-04-23 03:26:00,51.0,22.2,29.88,SSW,203,4.0,7.0,32,0.00,,,0.00,0,LWC V2.00 B727,2013-04-23 09:26:00,
2013-04-23 03:31:00,51.0,22.2,29.88,SW,233,3.0,6.0,32,0.00,,,0.00,0,LWC V2.00 B727,2013-04-23 09:31:00,
2013-04-23 03:36:00,50.9,22.1,29.88,SW,214,2.0,6.0,32,0.00,,,0.00,0,LWC V2.00 B727,2013-04-23 09:36:00,
2013-04-23 03:41:00,50.9,22.1,29.88,SSW,213,5.0,11.0,32,0.00,,,0.00,0,LWC V2.00 B727,2013-04-23 09:41:00,
2013-04-23 03:46:00,50.9,22.1,29.88,SSW,205,1.0,10.0,32,0.00,,,0.00,0,LWC V2.00 B727,2013-04-23 09:46:00,
2013-04-23 03:51:00,50.8,22.0,29.88,SSW,204,4.0,10.0,32,0.00,,,0.00,0,LWC V2.00 B727,2013-04-23 09:51:00,
2013-04-23 03:56:00,50.7,21.9,29.87,SSW,195,5.0,9.0,32,0.00,,,0.00,0,LWC V2.00 B727,2013-04-23 09:56:00,
2013-04-23 04:01:00,50.6,21.8,29.87,SSW,213,5.0,12.0,32,0.00,,,0.00,0,LWC V2.00 B727,2013-04-23 10:01:00,
2013-04-23 04:06:00,50.6,22.6,29.87,SSW,204,7.0,9.0,33,0.00,,,0.00,0,LWC V2.00 B727,2013-04-23 10:06:00,
2013-04-23 04:11:00,50.5,22.5,29.87,South,180,11.0,14.0,33,0.00,,,0.00,0,LWC V2.00 B727,2013-04-23 10:11:00,
2013-04-23 04:16:00,50.4,22.4,29.87,SW,218,7.0,10.0,33,0.00,,,0.00,0,LWC V2.00 B727,2013-04-23 10:16:00,
2013-04-23 04:21:00,50.4,22.4,29.87,SSW,196,6.0,13.0,33,0.00,,,0.00,0,LWC V2.00 B727,2013-04-23 10:21:00,
2013-04-23 04:26:00,50.3,22.3,29.87,SW,215,10.0,12.0,33,0.00,,,0.00,0,LWC V2.00 B727,2013-04-23 10:26:00,
2013-04-23 04:31:00,50.3,22.3,29.87,South,176,5.0,9.0,33,0.00,,,0.00,0,LWC V2.00 B727,2013-04-23 10:31:00,
2013-04-23 04:36:00,50.1,22.1,29.86,SSW,193,7.0,11.0,33,0.00,,,0.00,0,LWC V2.00 B727,2013-04-23 10:36:00,
2013-04-23 04:41:00,49.9,22.7,29.87,WNW,291,5.0,5.0,34,0.00,,,0.00,0,LWC V2.00 B727,2013-04-23 10:41:00,
2013-04-23 04:46:00,49.7,22.5,29.86,SSW,210,8.0,8.0,34,0.00,,,0.00,0,LWC V2.00 B727,2013-04-23 10:46:00,
2013-04-23 04:51:00,49.6,22.4,29.86,WSW,249,4.0,8.0,34,0.00,,,0.00,0,LWC V2.00 B727,2013-04-23 10:51:00,
2013-04-23 04:56:00,49.4,22.2,29.86,SW,219,2.0,8.0,34,0.00,,,0.00,0,LWC V2.00 B727,2013-04-23 10:56:00,
2013-04-23 05:01:00,49.2,22.0,29.86,SSW,202,4.0,10.0,34,0.00,,,0.00,0,LWC V2.00 B727,2013-04-23 11:01:00,
2013-04-23 05:06:00,49.1,22.6,29.86,SSW,202,7.0,7.0,35,0.00,,,0.00,0,LWC V2.00 B727,2013-04-23 11:06:00,
2013-04-23 05:11:00,49.1,22.6,29.86,South,182,5.0,10.0,35,0.00,,,0.00,0,LWC V2.00 B727,2013-04-23 11:11:00,
2013-04-23 05:16:00,49.0,22.6,29.86,SW,221,5.0,7.0,35,0.00,,,0.00,0,LWC V2.00 B727,2013-04-23 11:16:00,
2013-04-23 05:21:00,48.8,22.4,29.86,SSW,206,3.0,9.0,35,0.00,,,0.00,0,LWC V2.00 B727,2013-04-23 11:21:00,
2013-04-23 05:26:00,48.7,22.3,29.86,South,188,5.0,10.0,35,0.00,,,0.00,0,LWC V2.00 B727,2013-04-23 11:26:00,
2013-04-23 05:31:00,48.7,22.3,29.86,SSW,198,6.0,7.0,35,0.00,,,0.00,0,LWC V2.00 B727,2013-04-23 11:31:00,
2013-04-23 05:36:00,48.5,22.1,29.86,SSW,205,3.0,7.0,35,0.00,,,0.00,0,LWC V2.00 B727,2013-04-23 11:36:00,
2013-04-23 05:41:00,48.4,22.0,29.86,SW,229,4.0,8.0,35,0.00,,,0.00,0,LWC V2.00 B727,2013-04-23 11:41:00,
2013-04-23 05:46:00,48.3,22.6,29.87,SW,218,7.0,10.0,36,0.00,,,0.00,0,LWC V2.00 B727,2013-04-23 11:46:00,
2013-04-23 05:51:00,48.2,22.5,29.86,SW,235,5.0,10.0,36,0.00,,,0.00,0,LWC V2.00 B727,2013-04-23 11:51:00,
2013-04-23 05:56:00,48.1,22.4,29.86,WSW,245,5.0,9.0,36,0.00,,,0.00,0,LWC V2.00 B727,2013-04-23 11:56:00,
2013-04-23 06:01:00,48.0,22.3,29.87,SW,220,3.0,5.0,36,0.00,,,0.00,0,LWC V2.00 B727,2013-04-23 12:01:00,
2013-04-23 06:03:00,47.9,22.2,29.87,SSW,207,7.0,8.0,36,0.00,,,0.00,0,LWC V2.00 B727,2013-04-23 12:03:00,
2013-04-23 06:08:00,47.8,22.2,29.87,SW,232,3.0,6.0,36,0.00,,,0.00,0,LWC V2.00 B727,2013-04-23 12:08:00,
2013-04-23 06:13:00,47.6,22.6,29.86,SSW,203,4.0,7.0,37,0.00,,,0.00,0,LWC V2.00 B727,2013-04-23 12:13:00,
2013-04-23 06:18:00,47.4,22.5,29.87,SW,219,4.0,4.0,37,0.00,,,0.00,0,LWC V2.00 B727,2013-04-23 12:18:00,
2013-04-23 06:23:00,47.3,22.4,29.87,SSW,209,5.0,7.0,37,0.00,,,0.00,0,LWC V2.00 B727,2013-04-23 12:23:00,
2013-04-23 06:28:00,47.2,22.3,29.87,SW,230,1.0,7.0,37,0.00,,,0.00,7,LWC V2.00 B727,2013-04-23 12:28:00,
2013-04-23 06:33:00,47.2,22.3,29.87,West,268,4.0,10.0,37,0.00,,,0.00,11,LWC V2.00 B727,2013-04-23 12:33:00,
2013-04-23 06:38:00,47.2,22.9,29.87,WSW,251,8.0,8.0,38,0.00,,,0.00,18,LWC V2.00 B727,2013-04-23 12:38:00,
2013-04-23 06:43:00,47.2,22.3,29.87,SSW,207,7.0,10.0,37,0.00,,,0.00,25,LWC V2.00 B727,2013-04-23 12:43:00,
2013-04-23 06:48:00,47.3,23.0,29.87,SW,224,6.0,7.0,38,0.00,,,0.00,33,LWC V2.00 B727,2013-04-23 12:48:00,
2013-04-23 06:53:00,47.4,23.1,29.87,SSW,196,7.0,11.0,38,0.00,,,0.00,47,LWC V2.00 B727,2013-04-23 12:53:00,
2013-04-23 06:58:00,47.5,23.2,29.87,SW,225,10.0,13.0,38,0.00,,,0.00,49,LWC V2.00 B727,2013-04-23 12:58:00,
2013-04-23 07:03:00,47.5,23.2,29.87,SSW,210,7.0,15.0,38,0.00,,,0.00,53,LWC V2.00 B727,2013-04-23 13:03:00,
2013-04-23 07:08:00,47.6,23.3,29.87,SSW,209,4.0,12.0,38,0.00,,,0.00,63,LWC V2.00 B727,2013-04-23 13:08:00,
2013-04-23 07:13:00,47.7,23.4,29.87,WSW,238,4.0,7.0,38,0.00,,,0.00,70,LWC V2.00 B727,2013-04-23 13:13:00,
2013-04-23 07:18:00,47.7,23.4,29.87,WNW,286,8.0,8.0,38,0.00,,,0.00,84,LWC V2.00 B727,2013-04-23 13:18:00,
2013-04-23 07:23:00,47.8,23.4,29.87,SW,233,8.0,8.0,38,0.00,,,0.00,100,LWC V2.00 B727,2013-04-23 13:23:00,
2013-04-23 07:28:00,47.9,23.5,29.87,WSW,246,3.0,4.0,38,0.00,,,0.00,107,LWC V2.00 B727,2013-04-23 13:28:00,
2013-04-23 07:33:00,48.0,23.6,29.87,SW,219,4.0,6.0,38,0.00,,,0.00,104,LWC V2.00 B727,2013-04-23 13:33:00,
2013-04-23 07:38:00,48.1,23.7,29.86,SW,236,4.0,7.0,38,0.00,,,0.00,120,LWC V2.00 B727,2013-04-23 13:38:00,
2013-04-23 07:43:00,48.1,24.3,29.87,SSW,202,2.0,7.0,39,0.00,,,0.00,163,LWC V2.00 B727,2013-04-23 13:43:00,
2013-04-23 07:48:00,48.3,23.9,29.86,South,189,9.0,9.0,38,0.00,,,0.00,144,LWC V2.00 B727,2013-04-23 13:48:00,
2013-04-23 07:53:00,48.3,23.9,29.86,SW,236,3.0,5.0,38,0.00,,,0.00,107,LWC V2.00 B727,2013-04-23 13:53:00,
2013-04-23 07:58:00,48.3,26.3,29.86,NNE,12,0.0,8.0,42,0.00,,,0.00,248,LWC V2.00 B727,2013-04-23 13:58:00,
2013-04-23 08:03:00,48.2,26.8,29.86,NNW,340,1.0,5.0,43,0.00,,,0.00,287,LWC V2.00 B727,2013-04-23 14:03:00,
2013-04-23 08:08:00,47.7,26.9,29.86,NNE,15,3.0,8.0,44,0.00,,,0.00,322,LWC V2.00 B727,2013-04-23 14:08:00,
2013-04-23 08:13:00,47.3,26.5,29.86,NW,310,7.0,9.0,44,0.00,,,0.00,336,LWC V2.00 B727,2013-04-23 14:13:00,
2013-04-23 08:18:00,47.0,26.8,29.86,North,355,3.0,8.0,45,0.00,,,0.00,362,LWC V2.00 B727,2013-04-23 14:18:00,
2013-04-23 08:23:00,46.5,26.3,29.86,NNE,13,4.0,5.0,45,0.00,,,0.00,149,LWC V2.00 B727,2013-04-23 14:23:00,
2013-04-23 08:28:00,46.3,27.2,29.86,NNW,348,5.0,6.0,47,0.00,,,0.00,390,LWC V2.00 B727,2013-04-23 14:28:00,
2013-04-23 08:33:00,46.3,26.7,29.86,NNE,24,6.0,10.0,46,0.00,,,0.00,410,LWC V2.00 B727,2013-04-23 14:33:00,
2013-04-23 08:38:00,46.3,27.2,29.86,NNE,28,2.0,4.0,47,0.00,,,0.00,431,LWC V2.00 B727,2013-04-23 14:38:00,
2013-04-23 08:43:00,46.7,27.6,29.86,NNW,348,6.0,9.0,47,0.00,,,0.00,448,LWC V2.00 B727,2013-04-23 14:43:00,
2013-04-23 08:48:00,47.1,27.9,29.86,North,355,7.0,8.0,47,0.00,,,0.00,466,LWC V2.00 B727,2013-04-23 14:48:00,
2013-04-23 08:53:00,47.6,28.4,29.86,WSW,246,0.0,7.0,47,0.00,,,0.00,485,LWC V2.00 B727,2013-04-23 14:53:00,
2013-04-23 08:58:00,48.1,28.3,29.86,NNW,333,1.0,4.0,46,0.00,,,0.00,504,LWC V2.00 B727,2013-04-23 14:58:00,
2013-04-23 09:03:00,48.9,26.8,29.85,WSW,244,4.0,8.0,42,0.00,,,0.00,520,LWC V2.00 B727,2013-04-23 15:03:00,
2013-04-23 09:08:00,49.8,27.6,29.85,WSW,246,3.0,5.0,42,0.00,,,0.00,540,LWC V2.00 B727,2013-04-23 15:08:00,
2013-04-23 09:13:00,50.2,28.6,29.85,North,355,3.0,8.0,43,0.00,,,0.00,559,LWC V2.00 B727,2013-04-23 15:13:00,
2013-04-23 09:18:00,50.5,27.1,29.85,SSW,192,7.0,10.0,40,0.00,,,0.00,575,LWC V2.00 B727,2013-04-23 15:18:00,
2013-04-23 09:23:00,50.9,26.8,29.84,SSW,211,4.0,12.0,39,0.00,,,0.00,561,LWC V2.00 B727,2013-04-23 15:23:00,
2013-04-23 09:28:00,51.6,25.5,29.85,SSW,213,9.0,15.0,36,0.00,,,0.00,606,LWC V2.00 B727,2013-04-23 15:28:00,
2013-04-23 09:33:00,51.9,26.5,29.84,SW,225,11.0,13.0,37,0.00,,,0.00,628,LWC V2.00 B727,2013-04-23 15:33:00,
2013-04-23 09:38:00,52.4,26.9,29.84,SW,224,3.0,8.0,37,0.00,,,0.00,643,LWC V2.00 B727,2013-04-23 15:38:00,
2013-04-23 09:43:00,52.6,25.7,29.84,WSW,238,3.0,14.0,35,0.00,,,0.00,659,LWC V2.00 B727,2013-04-23 15:43:00,
2013-04-23 09:48:00,52.9,26.0,29.84,SW,226,9.0,16.0,35,0.00,,,0.00,675,LWC V2.00 B727,2013-04-23 15:48:00,
2013-04-23 09:53:00,53.1,26.2,29.84,SSW,211,9.0,13.0,35,0.00,,,0.00,693,LWC V2.00 B727,2013-04-23 15:53:00,
2013-04-23 09:58:00,53.3,27.0,29.85,North,350,4.0,9.0,36,0.00,,,0.00,717,LWC V2.00 B727,2013-04-23 15:58:00,
2013-04-23 10:03:00,53.5,25.8,29.85,South,190,11.0,21.0,34,0.00,,,0.00,638,LWC V2.00 B727,2013-04-23 16:03:00,
2013-04-23 10:08:00,53.3,28.3,29.85,SW,233,6.0,15.0,38,0.00,,,0.00,719,LWC V2.00 B727,2013-04-23 16:08:00,
2013-04-23 10:13:00,52.7,27.8,29.85,WSW,252,3.0,13.0,38,0.00,,,0.00,260,LWC V2.00 B727,2013-04-23 16:13:00,
2013-04-23 10:18:00,52.2,28.6,29.86,WSW,242,9.0,9.0,40,0.00,,,0.00,288,LWC V2.00 B727,2013-04-23 16:18:00,
2013-04-23 10:23:00,51.3,27.8,29.86,SW,234,2.0,9.0,40,0.00,,,0.00,318,LWC V2.00 B727,2013-04-23 16:23:00,
2013-04-23 10:28:00,50.3,28.1,29.86,NNW,339,5.0,14.0,42,0.00,,,0.00,341,LWC V2.00 B727,2013-04-23 16:28:00,
2013-04-23 10:33:00,49.5,27.9,29.86,NNE,26,2.0,7.0,43,0.00,,,0.00,339,LWC V2.00 B727,2013-04-23 16:33:00,
2013-04-23 10:38:00,49.2,27.7,29.87,West,263,3.0,5.0,43,0.00,,,0.00,322,LWC V2.00 B727,2013-04-23 16:38:00,
2013-04-23 10:43:00,48.8,27.9,29.87,WSW,241,3.0,11.0,44,0.00,,,0.00,369,LWC V2.00 B727,2013-04-23 16:43:00,
2013-04-23 10:48:00,48.8,27.9,29.87,SW,216,2.0,6.0,44,0.00,,,0.00,404,LWC V2.00 B727,2013-04-23 16:48:00,
2013-04-23 10:53:00,48.9,28.0,29.87,NW,324,6.0,8.0,44,0.00,,,0.00,436,LWC V2.00 B727,2013-04-23 16:53:00,
2013-04-23 10:58:00,49.0,26.9,29.88,SW,218,5.0,14.0,42,0.00,,,0.00,408,LWC V2.00 B727,2013-04-23 16:58:00,
2013-04-23 11:03:00,49.1,27.6,29.88,SW,236,8.0,11.0,43,0.00,,,0.00,499,LWC V2.00 B727,2013-04-23 17:03:00,
2013-04-23 11:08:00,49.5,27.9,29.88,ENE,77,4.0,6.0,43,0.00,,,0.00,439,LWC V2.00 B727,2013-04-23 17:08:00,
2013-04-23 11:13:00,49.7,27.6,29.88,East,86,1.0,8.0,42,0.00,,,0.00,487,LWC V2.00 B727,2013-04-23 17:13:00,
2013-04-23 11:18:00,49.9,27.1,29.88,SW,217,5.0,9.0,41,0.00,,,0.00,420,LWC V2.00 B727,2013-04-23 17:18:00,
2013-04-23 11:23:00,50.0,27.2,29.88,SW,214,7.0,11.0,41,0.00,,,0.00,478,LWC V2.00 B727,2013-04-23 17:23:00,
2013-04-23 11:28:00,50.5,28.8,29.88,WSW,258,1.0,11.0,43,0.00,,,0.00,759,LWC V2.00 B727,2013-04-23 17:28:00,
2013-04-23 11:33:00,51.2,27.1,29.88,SW,227,9.0,12.0,39,0.00,,,0.00,707,LWC V2.00 B727,2013-04-23 17:33:00,
2013-04-23 11:38:00,51.5,27.4,29.88,SSW,206,5.0,15.0,39,0.00,,,0.00,951,LWC V2.00 B727,2013-04-23 17:38:00,
2013-04-23 11:43:00,51.9,27.7,29.88,SW,222,8.0,13.0,39,0.00,,,0.00,844,LWC V2.00 B727,2013-04-23 17:43:00,
2013-04-23 11:48:00,51.7,26.3,29.88,SW,231,5.0,16.0,37,0.00,,,0.00,547,LWC V2.00 B727,2013-04-23 17:48:00,
2013-04-23 11:53:00,51.2,26.5,29.89,SW,234,5.0,14.0,38,0.00,,,0.00,461,LWC V2.00 B727,2013-04-23 17:53:00,
2013-04-23 11:58:00,50.7,25.4,29.88,SW,217,7.0,14.0,37,0.00,,,0.00,425,LWC V2.00 B727,2013-04-23 17:58:00,
2013-04-23 12:03:00,49.9,25.3,29.89,WSW,238,10.0,10.0,38,0.00,,,0.00,330,LWC V2.00 B727,2013-04-23 18:03:00,
2013-04-23 12:08:00,49.4,26.1,29.89,SW,234,5.0,9.0,40,0.00,,,0.00,341,LWC V2.00 B727,2013-04-23 18:08:00,
2013-04-23 12:13:00,49.3,26.0,29.89,WSW,253,10.0,14.0,40,0.00,,,0.00,387,LWC V2.00 B727,2013-04-23 18:13:00,
2013-04-23 12:18:00,49.2,25.3,29.89,West,277,4.0,12.0,39,0.00,,,0.00,376,LWC V2.00 B727,2013-04-23 18:18:00,
2013-04-23 12:23:00,49.0,25.7,29.89,SW,231,6.0,9.0,40,0.00,,,0.00,376,LWC V2.00 B727,2013-04-23 18:23:00,
2013-04-23 12:28:00,49.2,25.3,29.90,WSW,242,0.0,7.0,39,0.00,,,0.00,422,LWC V2.00 B727,2013-04-23 18:28:00,
2013-04-23 12:33:00,49.1,25.8,29.90,WSW,249,6.0,10.0,40,0.00,,,0.00,388,LWC V2.00 B727,2013-04-23 18:33:00,
2013-04-23 12:38:00,48.9,26.2,29.90,WSW,242,0.0,7.0,41,0.00,,,0.00,294,LWC V2.00 B727,2013-04-23 18:38:00,
2013-04-23 12:43:00,48.8,26.2,29.91,WSW,244,12.0,14.0,41,0.00,,,0.00,260,LWC V2.00 B727,2013-04-23 18:43:00,
2013-04-23 12:48:00,47.9,25.9,29.90,SW,217,4.0,12.0,42,0.00,,,0.00,236,LWC V2.00 B727,2013-04-23 18:48:00,
2013-04-23 12:53:00,47.5,26.7,29.91,WSW,240,1.0,7.0,44,0.00,,,0.00,248,LWC V2.00 B727,2013-04-23 18:53:00,
2013-04-23 12:58:00,47.3,27.6,29.91,North,355,2.0,8.0,46,0.00,,,0.00,229,LWC V2.00 B727,2013-04-23 18:58:00,
2013-04-23 13:03:00,46.9,27.7,29.91,North,0,4.0,10.0,47,0.00,,,0.00,206,LWC V2.00 B727,2013-04-23 19:03:00,
2013-04-23 13:08:00,46.1,28.0,29.91,WSW,241,4.0,11.0,49,0.00,,,0.00,188,LWC V2.00 B727,2013-04-23 19:08:00,
2013-04-23 13:13:00,45.4,28.8,29.92,WSW,243,6.0,6.0,52,0.00,,,0.00,209,LWC V2.00 B727,2013-04-23 19:13:00,
2013-04-23 13:18:00,44.7,30.0,29.92,SW,230,3.0,9.0,56,0.00,,,0.00,142,LWC V2.00 B727,2013-04-23 19:18:00,
2013-04-23 13:23:00,43.3,30.4,29.92,WSW,244,5.0,9.0,60,0.00,,,0.00,156,LWC V2.00 B727,2013-04-23 19:23:00,
2013-04-23 13:28:00,42.4,30.7,29.92,SSW,210,2.0,9.0,63,0.00,,,0.00,130,LWC V2.00 B727,2013-04-23 19:28:00,
2013-04-23 13:30:00,42.3,31.0,29.92,SSW,209,2.0,4.0,64,0.00,,,0.00,132,LWC V2.00 B727,2013-04-23 19:30:00,
2013-04-23 13:35:00,41.6,30.7,29.92,SSW,212,5.0,7.0,65,0.00,,,0.00,105,LWC V2.00 B727,2013-04-23 19:35:00,
2013-04-23 13:40:00,40.9,31.2,29.92,WSW,248,3.0,7.0,68,0.00,,,0.00,90,LWC V2.00 B727,2013-04-23 19:40:00,
2013-04-23 13:45:00,40.5,31.5,29.92,SW,231,3.0,5.0,70,0.00,,,0.00,97,LWC V2.00 B727,2013-04-23 19:45:00,
2013-04-23 13:50:00,40.2,31.6,29.93,WSW,248,3.0,7.0,71,0.00,,,0.00,54,LWC V2.00 B727,2013-04-23 19:50:00,
2013-04-23 13:55:00,39.8,31.5,29.94,West,266,4.0,8.0,72,0.00,,,0.00,49,LWC V2.00 B727,2013-04-23 19:55:00,
2013-04-23 14:00:00,39.0,31.4,29.94,ENE,59,1.0,7.0,74,0.00,,,0.00,42,LWC V2.00 B727,2013-04-23 20:00:00,
2013-04-23 14:05:00,38.2,31.0,29.94,NNE,24,3.0,6.0,75,0.00,,,0.00,37,LWC V2.00 B727,2013-04-23 20:05:00,
2013-04-23 14:10:00,37.6,31.1,29.93,SW,228,2.0,2.0,77,0.00,,,0.00,49,LWC V2.00 B727,2013-04-23 20:10:00,
2013-04-23 14:15:00,37.0,30.8,29.94,SW,229,4.0,7.0,78,0.00,,,0.01,39,LWC V2.00 B727,2013-04-23 20:15:00,
2013-04-23 14:20:00,36.1,30.5,29.95,SSW,192,7.0,11.0,80,0.08,,,0.01,49,LWC V2.00 B727,2013-04-23 20:20:00,
2013-04-23 14:25:00,35.7,30.8,29.94,South,176,4.0,8.0,82,0.08,,,0.02,46,LWC V2.00 B727,2013-04-23 20:25:00,
2013-04-23 14:30:00,35.7,30.5,29.94,WSW,248,11.0,20.0,81,0.06,,,0.02,47,LWC V2.00 B727,2013-04-23 20:30:00,
2013-04-23 14:35:00,36.1,30.8,29.93,SSW,209,6.0,11.0,81,0.04,,,0.02,60,LWC V2.00 B727,2013-04-23 20:35:00,
2013-04-23 14:40:00,36.4,31.1,29.94,SSW,204,4.0,6.0,81,0.00,,,0.02,51,LWC V2.00 B727,2013-04-23 20:40:00,
2013-04-23 14:45:00,36.6,31.6,29.93,SSW,204,5.0,12.0,82,0.00,,,0.02,53,LWC V2.00 B727,2013-04-23 20:45:00,
2013-04-23 14:50:00,36.7,32.0,29.94,SSW,211,7.0,7.0,83,0.00,,,0.02,44,LWC V2.00 B727,2013-04-23 20:50:00,
2013-04-23 14:55:00,36.7,31.7,29.93,South,184,8.0,12.0,82,0.00,,,0.02,58,LWC V2.00 B727,2013-04-23 20:55:00,
2013-04-23 15:00:00,36.9,31.0,29.93,WSW,242,6.0,10.0,79,0.00,,,0.02,42,LWC V2.00 B727,2013-04-23 21:00:00,
2013-04-23 15:05:00,37.1,30.2,29.93,South,181,8.0,15.0,76,0.00,,,0.02,42,LWC V2.00 B727,2013-04-23 21:05:00,
2013-04-23 15:10:00,37.1,30.6,29.92,SSW,210,11.0,11.0,77,0.00,,,0.02,35,LWC V2.00 B727,2013-04-23 21:10:00,
2013-04-23 15:15:00,37.1,29.6,29.92,SSW,205,7.0,14.0,74,0.00,,,0.02,47,LWC V2.00 B727,2013-04-23 21:15:00,
2013-04-23 15:20:00,37.5,29.6,29.92,SSW,200,1.0,14.0,73,0.00,,,0.02,62,LWC V2.00 B727,2013-04-23 21:20:00,
2013-04-23 15:25:00,37.6,30.1,29.92,WSW,249,11.0,16.0,74,0.00,,,0.02,98,LWC V2.00 B727,2013-04-23 21:25:00,
2013-04-23 15:30:00,37.8,30.6,29.92,WSW,237,9.0,14.0,75,0.00,,,0.02,84,LWC V2.00 B727,2013-04-23 21:30:00,
2013-04-23 15:35:00,37.9,30.7,29.93,SSW,208,8.0,12.0,75,0.00,,,0.02,123,LWC V2.00 B727,2013-04-23 21:35:00,
2013-04-23 15:40:00,38.1,30.9,29.93,SW,227,12.0,13.0,75,0.00,,,0.02,132,LWC V2.00 B727,2013-04-23 21:40:00,
2013-04-23 15:45:00,38.4,30.8,29.92,SW,215,5.0,17.0,74,0.00,,,0.02,116,LWC V2.00 B727,2013-04-23 21:45:00,
2013-04-23 15:50:00,38.7,31.1,29.92,SW,225,9.0,10.0,74,0.00,,,0.02,179,LWC V2.00 B727,2013-04-23 21:50:00,
2013-04-23 15:55:00,39.1,31.5,29.92,South,171,7.0,9.0,74,0.00,,,0.02,283,LWC V2.00 B727,2013-04-23 21:55:00,
2013-04-23 16:00:00,39.5,31.9,29.92,SSW,205,8.0,14.0,74,0.00,,,0.02,225,LWC V2.00 B727,2013-04-23 22:00:00,
2013-04-23 16:05:00,39.5,31.9,29.92,South,177,6.0,16.0,74,0.00,,,0.02,202,LWC V2.00 B727,2013-04-23 22:05:00,
2013-04-23 16:10:00,39.7,32.1,29.92,SW,220,11.0,13.0,74,0.00,,,0.02,225,LWC V2.00 B727,2013-04-23 22:10:00,
2013-04-23 16:15:00,39.8,31.5,29.92,South,179,7.0,18.0,72,0.00,,,0.02,237,LWC V2.00 B727,2013-04-23 22:15:00,
2013-04-23 16:20:00,40.3,32.0,29.91,WSW,241,12.0,15.0,72,0.00,,,0.02,295,LWC V2.00 B727,2013-04-23 22:20:00,
2013-04-23 16:25:00,41.5,32.8,29.91,South,184,14.0,15.0,71,0.00,,,0.02,599,LWC V2.00 B727,2013-04-23 22:25:00,
2013-04-23 16:30:00,42.8,33.3,29.91,WSW,245,7.0,17.0,69,0.00,,,0.02,735,LWC V2.00 B727,2013-04-23 22:30:00,
2013-04-23 16:35:00,43.6,33.4,29.92,SW,232,6.0,15.0,67,0.00,,,0.02,687,LWC V2.00 B727,2013-04-23 22:35:00,
2013-04-23 16:40:00,44.6,34.7,29.92,SW,221,3.0,5.0,68,0.00,,,0.02,605,LWC V2.00 B727,2013-04-23 22:40:00,
2013-04-23 16:45:00,45.8,34.3,29.92,SSW,196,7.0,15.0,64,0.00,,,0.02,619,LWC V2.00 B727,2013-04-23 22:45:00,
2013-04-23 16:50:00,46.3,32.8,29.92,SSE,164,12.0,12.0,59,0.00,,,0.02,647,LWC V2.00 B727,2013-04-23 22:50:00,
2013-04-23 16:55:00,46.7,30.5,29.92,SW,214,11.0,13.0,53,0.00,,,0.02,587,LWC V2.00 B727,2013-04-23 22:55:00,
2013-04-23 17:00:00,47.7,30.5,29.93,WSW,240,5.0,13.0,51,0.00,,,0.02,564,LWC V2.00 B727,2013-04-23 23:00:00,
2013-04-23 17:05:00,48.6,20.8,29.93,NNW,342,6.0,14.0,33,0.00,,,0.02,540,LWC V2.00 B727,2013-04-23 23:05:00,
2013-04-23 17:10:00,49.0,18.9,29.94,West,269,7.0,12.0,30,0.00,,,0.02,526,LWC V2.00 B727,2013-04-23 23:10:00,
2013-04-23 17:15:00,49.4,17.7,29.94,SW,215,6.0,11.0,28,0.00,,,0.02,508,LWC V2.00 B727,2013-04-23 23:15:00,
2013-04-23 17:20:00,49.5,16.1,29.95,NE,49,6.0,12.0,26,0.00,,,0.02,476,LWC V2.00 B727,2013-04-23 23:20:00,
2013-04-23 17:25:00,49.1,13.9,29.95,SSW,210,15.0,15.0,24,0.00,,,0.02,464,LWC V2.00 B727,2013-04-23 23:25:00,
2013-04-23 17:30:00,49.0,12.8,29.96,WNW,294,6.0,15.0,23,0.00,,,0.02,441,LWC V2.00 B727,2013-04-23 23:30:00,
2013-04-23 17:35:00,48.7,11.6,29.97,SW,230,4.0,19.0,22,0.00,,,0.02,427,LWC V2.00 B727,2013-04-23 23:35:00,
2013-04-23 17:40:00,48.5,10.4,29.98,SSW,207,4.0,18.0,21,0.00,,,0.02,408,LWC V2.00 B727,2013-04-23 23:40:00,
2013-04-23 17:45:00,48.1,9.0,29.98,SW,235,5.0,12.0,20,0.00,,,0.02,387,LWC V2.00 B727,2013-04-23 23:45:00,
2013-04-23 17:50:00,48.2,11.2,29.99,SW,231,5.0,10.0,22,0.00,,,0.02,369,LWC V2.00 B727,2013-04-23 23:50:00,
2013-04-23 17:55:00,48.2,10.1,29.99,WNW,288,11.0,13.0,21,0.00,,,0.02,336,LWC V2.00 B727,2013-04-23 23:55:00,
2013-04-23 18:00:00,47.9,9.9,30.00,SW,217,8.0,15.0,21,0.00,,,0.02,318,LWC V2.00 B727,2013-04-24 00:00:00,
2013-04-23 18:05:00,47.7,8.6,30.00,NNW,335,5.0,14.0,20,0.00,,,0.02,302,LWC V2.00 B727,2013-04-24 00:05:00,
2013-04-23 18:10:00,47.6,7.4,30.01,NNE,29,4.0,14.0,19,0.00,,,0.02,272,LWC V2.00 B727,2013-04-24 00:10:00,
2013-04-23 18:15:00,47.1,8.1,30.01,NNE,28,6.0,9.0,20,0.00,,,0.02,257,LWC V2.00 B727,2013-04-24 00:15:00,
2013-04-23 18:20:00,46.9,10.1,30.01,SW,234,2.0,14.0,22,0.00,,,0.02,221,LWC V2.00 B727,2013-04-24 00:20:00,
2013-04-23 18:25:00,46.9,9.0,30.02,ESE,123,4.0,11.0,21,0.00,,,0.02,44,LWC V2.00 B727,2013-04-24 00:25:00,
2013-04-23 18:30:00,46.6,7.7,30.02,WSW,244,6.0,18.0,20,0.00,,,0.02,42,LWC V2.00 B727,2013-04-24 00:30:00,
2013-04-23 18:35:00,46.1,6.2,30.02,SW,226,1.0,11.0,19,0.00,,,0.02,40,LWC V2.00 B727,2013-04-24 00:35:00,
2013-04-23 18:40:00,45.8,5.9,30.03,West,264,9.0,15.0,19,0.00,,,0.02,39,LWC V2.00 B727,2013-04-24 00:40:00,
2013-04-23 18:45:00,45.4,6.7,30.03,SSW,195,3.0,11.0,20,0.00,,,0.02,37,LWC V2.00 B727,2013-04-24 00:45:00,
2013-04-23 18:50:00,45.2,6.5,30.04,SW,235,3.0,13.0,20,0.00,,,0.02,35,LWC V2.00 B727,2013-04-24 00:50:00,
2013-04-23 18:55:00,45.0,6.4,30.04,SW,222,5.0,11.0,20,0.00,,,0.02,32,LWC V2.00 B727,2013-04-24 00:55:00,
2013-04-23 19:00:00,44.7,7.2,30.04,SW,228,7.0,8.0,21,0.00,,,0.02,30,LWC V2.00 B727,2013-04-24 01:00:00,
2013-04-23 19:05:00,44.4,6.9,30.05,SSW,210,2.0,8.0,21,0.00,,,0.02,28,LWC V2.00 B727,2013-04-24 01:05:00,
2013-04-23 19:10:00,44.1,6.7,30.05,SSW,195,5.0,12.0,21,0.00,,,0.02,25,LWC V2.00 B727,2013-04-24 01:10:00,
2013-04-23 19:15:00,43.9,6.5,30.06,WSW,254,8.0,17.0,21,0.00,,,0.02,23,LWC V2.00 B727,2013-04-24 01:15:00,
2013-04-23 19:20:00,43.7,7.4,30.06,SW,221,3.0,11.0,22,0.00,,,0.02,19,LWC V2.00 B727,2013-04-24 01:20:00,
2013-04-23 19:25:00,43.4,7.1,30.07,WSW,249,7.0,7.0,22,0.00,,,0.02,16,LWC V2.00 B727,2013-04-24 01:25:00,
2013-04-23 19:30:00,43.1,6.9,30.07,SW,221,3.0,9.0,22,0.00,,,0.02,12,LWC V2.00 B727,2013-04-24 01:30:00,
2013-04-23 19:35:00,42.7,6.5,30.08,South,184,6.0,10.0,22,0.00,,,0.02,11,LWC V2.00 B727,2013-04-24 01:35:00,
2013-04-23 19:40:00,42.3,7.2,30.08,West,265,6.0,7.0,23,0.00,,,0.02,7,LWC V2.00 B727,2013-04-24 01:40:00,
2013-04-23 19:45:00,42.0,6.9,30.08,SW,224,3.0,9.0,23,0.00,,,0.02,0,LWC V2.00 B727,2013-04-24 01:45:00,
2013-04-23 19:50:00,41.8,6.8,30.09,WSW,251,2.0,6.0,23,0.00,,,0.02,0,LWC V2.00 B727,2013-04-24 01:50:00,
2013-04-23 19:55:00,41.5,5.5,30.09,SSW,204,4.0,7.0,22,0.00,,,0.02,0,LWC V2.00 B727,2013-04-24 01:55:00,
2013-04-23 20:00:00,41.2,6.2,30.10,WSW,242,2.0,7.0,23,0.00,,,0.02,0,LWC V2.00 B727,2013-04-24 02:00:00,
2013-04-23 20:05:00,40.9,6.9,30.10,SW,219,0.0,1.0,24,0.00,,,0.02,0,LWC V2.00 B727,2013-04-24 02:05:00,
2013-04-23 20:10:00,40.4,6.5,30.11,SW,218,2.0,3.0,24,0.00,,,0.02,0,LWC V2.00 B727,2013-04-24 02:10:00,
2013-04-23 20:15:00,39.8,6.9,30.11,SW,217,0.0,1.0,25,0.00,,,0.02,0,LWC V2.00 B727,2013-04-24 02:15:00,
2013-04-23 20:20:00,39.3,5.6,30.12,SW,217,1.0,1.0,24,0.00,,,0.02,0,LWC V2.00 B727,2013-04-24 02:20:00,
2013-04-23 20:25:00,38.6,5.9,30.12,SW,215,2.0,3.0,25,0.00,,,0.02,0,LWC V2.00 B727,2013-04-24 02:25:00,
2013-04-23 20:30:00,37.8,6.9,30.13,SSW,203,3.0,3.0,27,0.00,,,0.02,0,LWC V2.00 B727,2013-04-24 02:30:00,
2013-04-23 20:35:00,37.0,7.0,30.13,SSW,202,2.0,3.0,28,0.00,,,0.02,0,LWC V2.00 B727,2013-04-24 02:35:00,
2013-04-23 20:40:00,36.3,8.6,30.14,SSW,202,1.0,3.0,31,0.00,,,0.02,0,LWC V2.00 B727,2013-04-24 02:40:00,
2013-04-23 20:45:00,35.3,8.4,30.14,SSW,194,0.0,1.0,32,0.00,,,0.02,0,LWC V2.00 B727,2013-04-24 02:45:00,
2013-04-23 20:50:00,34.7,8.6,30.14,SSE,159,3.0,3.0,33,0.00,,,0.02,0,LWC V2.00 B727,2013-04-24 02:50:00,
2013-04-23 20:55:00,34.0,8.0,30.15,SE,144,1.0,1.0,33,0.00,,,0.02,0,LWC V2.00 B727,2013-04-24 02:55:00,
2013-04-23 21:00:00,33.4,8.1,30.15,SE,146,0.0,0.0,34,0.00,,,0.02,0,LWC V2.00 B727,2013-04-24 03:00:00,
2013-04-23 21:05:00,32.8,6.2,30.16,SE,146,0.0,2.0,32,0.00,,,0.02,0,LWC V2.00 B727,2013-04-24 03:05:00,
2013-04-23 21:10:00,32.5,6.0,30.16,SE,146,0.0,2.0,32,0.00,,,0.02,0,LWC V2.00 B727,2013-04-24 03:10:00,
2013-04-23 21:15:00,32.2,6.4,30.17,SE,146,0.0,1.0,33,0.00,,,0.02,0,LWC V2.00 B727,2013-04-24 03:15:00,
2013-04-23 21:20:00,32.0,7.5,30.17,SE,146,0.0,2.0,35,0.00,,,0.02,0,LWC V2.00 B727,2013-04-24 03:20:00,
2013-04-23 21:25:00,31.7,6.6,30.18,SE,146,1.0,2.0,34,0.00,,,0.02,0,LWC V2.00 B727,2013-04-24 03:25:00,
2013-04-23 21:30:00,31.9,5.4,30.18,SE,146,1.0,2.0,32,0.00,,,0.02,0,LWC V2.00 B727,2013-04-24 03:30:00,
2013-04-23 21:35:00,32.1,6.3,30.19,SE,146,0.0,1.0,33,0.00,,,0.02,0,LWC V2.00 B727,2013-04-24 03:35:00,
2013-04-23 21:40:00,32.4,5.2,30.19,SSE,148,1.0,3.0,31,0.00,,,0.02,0,LWC V2.00 B727,2013-04-24 03:40:00,
2013-04-23 21:45:00,32.9,4.9,30.19,South,186,2.0,5.0,30,0.00,,,0.02,0,LWC V2.00 B727,2013-04-24 03:45:00,
2013-04-23 21:46:00,33.0,5.0,30.19,South,186,1.0,5.0,30,0.00,,,0.02,0,LWC V2.00 B727,2013-04-24 03:46:00,
2013-04-23 21:51:00,33.3,6.0,30.20,South,186,0.0,0.0,31,0.00,,,0.02,0,LWC V2.00 B727,2013-04-24 03:51:00,
2013-04-23 21:56:00,33.2,6.6,30.20,South,186,0.0,1.0,32,0.00,,,0.02,0,LWC V2.00 B727,2013-04-24 03:56:00,
2013-04-23 22:01:00,32.9,7.6,30.21,South,186,0.0,0.0,34,0.00,,,0.02,0,LWC V2.00 B727,2013-04-24 04:01:00,
2013-04-23 22:06:00,32.0,7.5,30.21,South,186,0.0,0.0,35,0.00,,,0.02,0,LWC V2.00 B727,2013-04-24 04:06:00,
2013-04-23 22:11:00,31.2,6.8,30.21,South,186,0.0,0.0,35,0.00,,,0.02,0,LWC V2.00 B727,2013-04-24 04:11:00,
2013-04-23 22:16:00,30.7,7.5,30.22,South,186,0.0,0.0,37,0.00,,,0.02,0,LWC V2.00 B727,2013-04-24 04:16:00,
2013-04-23 22:21:00,30.1,8.2,30.22,South,186,0.0,0.0,39,0.00,,,0.02,0,LWC V2.00 B727,2013-04-24 04:21:00,
2013-04-23 22:26:00,29.4,8.1,30.22,South,186,0.0,0.0,40,0.00,,,0.02,0,LWC V2.00 B727,2013-04-24 04:26:00,
2013-04-23 22:31:00,28.5,8.4,30.22,South,186,0.0,0.0,42,0.00,,,0.02,0,LWC V2.00 B727,2013-04-24 04:31:00,
2013-04-23 22:36:00,27.7,7.6,30.22,South,186,0.0,0.0,42,0.00,,,0.02,0,LWC V2.00 B727,2013-04-24 04:36:00,
2013-04-23 22:41:00,27.1,8.1,30.22,South,186,0.0,0.0,44,0.00,,,0.02,0,LWC V2.00 B727,2013-04-24 04:41:00,
2013-04-23 22:46:00,26.6,8.2,30.22,South,186,0.0,1.0,45,0.00,,,0.02,0,LWC V2.00 B727,2013-04-24 04:46:00,
2013-04-23 22:51:00,26.3,7.9,30.22,South,186,0.0,1.0,45,0.00,,,0.02,0,LWC V2.00 B727,2013-04-24 04:51:00,
2013-04-23 22:56:00,26.2,7.8,30.22,South,184,0.0,1.0,45,0.00,,,0.02,0,LWC V2.00 B727,2013-04-24 04:56:00,
2013-04-23 23:01:00,26.2,6.8,30.22,South,185,0.0,0.0,43,0.00,,,0.02,0,LWC V2.00 B727,2013-04-24 05:01:00,
2013-04-23 23:06:00,26.1,7.2,30.23,South,185,0.0,0.0,44,0.00,,,0.02,0,LWC V2.00 B727,2013-04-24 05:06:00,
2013-04-23 23:11:00,26.0,7.6,30.23,South,185,0.0,0.0,45,0.00,,,0.02,0,LWC V2.00 B727,2013-04-24 05:11:00,
2013-04-23 23:16:00,25.6,7.7,30.24,South,184,0.0,0.0,46,0.00,,,0.02,0,LWC V2.00 B727,2013-04-24 05:16:00,
2013-04-23 23:21:00,25.1,8.2,30.24,South,185,0.0,1.0,48,0.00,,,0.02,0,LWC V2.00 B727,2013-04-24 05:21:00,
2013-04-23 23:26:00,24.5,8.6,30.24,South,185,0.0,0.0,50,0.00,,,0.02,0,LWC V2.00 B727,2013-04-24 05:26:00,
2013-04-23 23:31:00,24.3,8.8,30.25,South,184,0.0,0.0,51,0.00,,,0.02,0,LWC V2.00 B727,2013-04-24 05:31:00,
2013-04-23 23:36:00,24.0,8.5,30.25,South,185,0.0,0.0,51,0.00,,,0.02,0,LWC V2.00 B727,2013-04-24 05:36:00,
2013-04-23 23:41:00,23.8,9.6,30.26,South,185,1.0,1.0,54,0.00,,,0.02,0,LWC V2.00 B727,2013-04-24 05:41:00,
2013-04-23 23:46:00,23.6,9.8,30.26,South,185,0.0,1.0,55,0.00,,,0.02,0,LWC V2.00 B727,2013-04-24 05:46:00,
2013-04-23 23:51:00,23.5,9.7,30.28,South,184,1.0,2.0,55,0.00,,,0.02,0,LWC V2.00 B727,2013-04-24 05:51:00,
2013-04-23 23:56:00,23.9,8.0,30.28,South,185,1.0,3.0,50,0.00,,,0.02,0,LWC V2.00 B727,2013-04-24 05:56:00,